Back to catalog

CZ-6A DEB

AliveSSO
NORAD 56674·DEBRIS·🇨🇳 China

Launched Nov 11, 2022 from Taiyuan Satellite Launch Center

Loading…

Next Passes (next 24 hours)

TLE

FreshSource: Space-Track

Epoch: Sep 14, 2026, 02:13 UTC

1 56674U 22151AHA 26257.09291652  .00004405  00000-0  85498-3 0  9995
2 56674  98.5129 298.2336 0122620  39.3995 321.6043 14.59013379184574

Track CZ-6A DEB in real time with AllMySat

Download on the App Store